AC0MR Weather Reports


time (UTC)temp
F
wind
direction
speed
knots
gust
knots
rain 1hr
in
rain 24hr
in
rain mn
in
humidity
%
barometer
mb
20260906091019 70 68 0.9 4.3 0.00 0.00 0.00 89 1017.0
20260906090019 70 90 0.9 2.6 0.00 0.00 0.00 89 1016.8
20260906085019 70 90 1.7 3.5 0.00 0.00 0.00 89 1016.7
20260906084019 70 45 1.7 5.2 0.00 0.00 0.00 89 1016.6
20260906083019 70 90 1.7 4.3 0.00 0.00 0.00 89 1016.9
20260906082019 71 90 1.7 4.3 0.00 0.00 0.00 89 1016.9
20260906081019 71 90 2.6 7.0 0.00 0.00 0.00 88 1016.9
20260906080019 71 45 0.9 4.3 0.00 0.00 0.00 88 1017.0
20260906075019 71 90 1.7 7.0 0.00 0.00 0.00 88 1016.8
20260906074019 72 23 2.6 7.8 0.00 0.00 0.00 88 1017.1
20260906073019 72 68 2.6 5.2 0.00 0.00 0.00 88 1017.1
20260906072019 72 45 2.6 6.1 0.00 0.00 0.00 88 1017.3
20260906071019 72 68 1.7 5.2 0.00 0.00 0.00 88 1017.4
20260906070019 72 45 1.7 5.2 0.00 0.00 0.00 88 1017.5
20260906065020 72 23 2.6 6.1 0.00 0.00 0.00 88 1017.6
20260906064019 72 45 1.7 5.2 0.00 0.00 0.00 88 1017.4
20260906063019 72 45 0.9 3.5 0.00 0.00 0.00 87 1017.4
20260906062019 72 23 1.7 5.2 0.00 0.00 0.00 88 1017.4
20260906061019 72 23 2.6 5.2 0.00 0.00 0.00 88 1017.5
20260906060019 72 68 0.9 3.5 0.00 0.00 0.00 88 1017.2
20260906055019 72 45 2.6 7.8 0.00 0.00 0.00 88 1017.1
20260906054019 72 23 2.6 4.3 0.00 0.00 0.00 87 1017.2
20260906053019 73 0 0.9 3.5 0.00 0.00 0.00 87 1017.4
20260906052019 73 0 1.7 5.2 0.00 0.00 0.00 87 1017.3
20260906051019 73 45 1.7 4.3 0.00 0.00 0.00 87 1016.9
20260906050019 73 0 1.7 5.2 0.00 0.00 0.00 87 1016.9
20260906045019 73 338 1.7 5.2 0.00 0.00 0.00 86 1017.0
20260906044017 73 23 2.6 5.2 0.00 0.00 0.00 86 1017.1
20260906043019 74 338 2.6 4.3 0.00 0.00 0.00 86 1017.2
20260906042019 74 338 1.7 5.2 0.00 0.00 0.00 86 1017.1
20260906041019 74 338 2.6 4.3 0.00 0.00 0.00 86 1017.2
20260906040019 74 338 2.6 3.5 0.00 0.00 0.00 86 1016.8
20260906035019 74 23 1.7 3.5 0.00 0.00 0.00 86 1016.9
20260906034019 74 23 1.7 3.5 0.00 0.00 0.00 86 1016.7
20260906033019 74 23 0.9 3.5 0.00 0.00 0.00 85 1016.8
20260906032019 75 0 1.7 3.5 0.00 0.00 0.00 85 1016.8
20260906031019 75 45 1.7 2.6 0.00 0.00 0.00 85 1016.6
20260906030019 75 45 0.9 2.6 0.00 0.00 0.00 85 1016.6
20260906025019 75 45 0.9 2.6 0.00 0.00 0.00 84 1016.5
20260906024019 75 45 1.7 2.6 0.00 0.00 0.00 84 1016.1
20260906023019 76 45 0.9 2.6 0.00 0.00 0.00 83 1016.1
20260906022019 76 45 0.9 2.6 0.00 0.00 0.00 83 1016.0
20260906021019 76 45 0.9 3.5 0.00 0.00 0.00 82 1015.5
20260906020019 76 45 0.9 2.6 0.00 0.00 0.00 82 1015.4
20260906015019 77 68 0.9 2.6 0.00 0.00 0.00 82 1015.2
20260906014019 77 45 0.9 4.3 0.00 0.00 0.00 82 1015.1
20260906013019 77 68 1.7 4.3 0.00 0.00 0.00 82 1014.9
20260906012019 77 68 1.7 4.3 0.00 0.00 0.00 81 1014.8
20260906011019 78 68 0.9 6.1 0.00 0.00 0.00 81 1014.9
20260906010019 78 45 1.7 8.7 0.00 0.00 0.00 81 1014.7
20260906005019 78 45 1.7 7.0 0.00 0.00 0.00 80 1014.8
20260906004019 79 45 0.9 3.5 0.00 0.00 0.00 80 1014.7
20260906003019 79 45 1.7 4.3 0.00 0.00 0.00 79 1014.6
20260906002019 79 45 0.9 4.3 0.00 0.00 0.00 78 1014.6
20260906001019 80 45 0.9 2.6 0.00 0.00 0.00 78 1014.6
20260906000019 80 45 1.7 6.1 0.00 0.00 0.00 77 1014.6
20260905235019 81 45 1.7 5.2 0.00 0.00 0.00 76 1014.6
20260905234019 81 90 1.7 4.3 0.00 0.00 0.00 76 1014.6
20260905233019 81 45 2.6 7.8 0.00 0.00 0.00 76 1014.4
20260905232019 82 45 3.5 9.6 0.00 0.00 0.00 75 1014.3
20260905231018 82 23 2.6 9.6 0.00 0.00 0.00 75 1014.3
20260905230019 82 45 3.5 12.2 0.00 0.00 0.00 74 1014.4
20260905225019 83 23 5.2 10.4 0.00 0.00 0.00 74 1014.2
20260905224019 83 45 3.5 10.4 0.00 0.00 0.00 74 1014.2
20260905223019 83 23 4.3 8.7 0.00 0.00 0.00 74 1014.1
20260905222019 83 45 2.6 7.0 0.00 0.00 0.00 75 1014.3
20260905221019 83 23 3.5 8.7 0.00 0.00 0.00 74 1014.3
20260905220018 83 0 3.5 9.6 0.00 0.00 0.00 75 1014.3
20260905215018 83 45 4.3 9.6 0.00 0.00 0.00 74 1014.2
20260905214019 84 0 5.2 9.6 0.00 0.00 0.00 75 1014.3
20260905213019 84 23 5.2 11.3 0.00 0.00 0.00 75 1014.4
20260905212018 85 0 5.2 9.6 0.00 0.00 0.00 75 1014.4
20260905211019 86 0 6.1 12.2 0.00 0.00 0.00 74 1014.5
20260905210019 86 23 4.3 8.7 0.00 0.00 0.00 74 1014.5
20260905205018 86 0 5.2 9.6 0.00 0.00 0.00 74 1014.6
20260905204018 87 0 4.3 8.7 0.00 0.00 0.00 74 1014.6
20260905203019 87 0 4.3 8.7 0.00 0.00 0.00 73 1014.6
20260905202019 87 0 2.6 5.2 0.00 0.00 0.00 73 1014.6
20260905201018 87 0 2.6 7.0 0.00 0.00 0.00 73 1014.3
20260905200018 87 0 4.3 9.6 0.00 0.00 0.00 74 1014.4
20260905195018 87 0 3.5 8.7 0.00 0.00 0.00 75 1014.8
20260905194019 87 338 3.5 7.0 0.00 0.00 0.00 74 1015.0
20260905193019 87 45 3.5 7.8 0.00 0.00 0.00 75 1015.1
20260905192019 87 0 3.5 7.8 0.00 0.00 0.00 75 1015.3
20260905191018 87 338 2.6 7.0 0.00 0.00 0.00 74 1015.5
20260905190018 87 315 1.7 4.3 0.00 0.00 0.00 73 1015.2
20260905185018 88 45 1.7 5.2 0.00 0.00 0.00 75 1015.3
20260905184018 88 338 2.6 7.0 0.00 0.00 0.00 75 1015.3
20260905183019 87 45 2.6 5.2 0.00 0.00 0.00 76 1015.3
20260905182018 87 45 3.5 7.8 0.00 0.00 0.00 74 1015.4
20260905181018 88 23 2.6 8.7 0.00 0.00 0.00 75 1015.3
20260905180018 88 23 3.5 8.7 0.00 0.00 0.00 73 1015.2
20260905175018 88 45 3.5 8.7 0.00 0.00 0.00 74 1015.2
20260905174018 89 23 4.3 7.8 0.00 0.00 0.00 72 1015.2
20260905173018 89 23 2.6 7.0 0.00 0.00 0.00 74 1015.2
20260905172018 89 23 3.5 7.8 0.00 0.00 0.00 75 1015.2
20260905171018 88 23 3.5 8.7 0.00 0.00 0.00 74 1015.3
20260905170018 87 23 3.5 7.8 0.00 0.00 0.00 74 1015.4
20260905165018 87 23 3.5 8.7 0.00 0.00 0.00 76 1015.5
20260905164018 86 0 3.5 9.6 0.00 0.00 0.00 76 1015.5
20260905163018 86 0 5.2 9.6 0.00 0.00 0.00 75 1015.5
20260905162018 86 23 3.5 7.8 0.00 0.00 0.00 76 1015.6
20260905161018 86 23 4.3 10.4 0.00 0.00 0.00 76 1015.5
20260905160018 86 0 3.5 9.6 0.00 0.00 0.00 76 1015.6
20260905155018 85 23 3.5 8.7 0.00 0.00 0.00 76 1015.5
20260905154018 85 0 3.5 8.7 0.00 0.00 0.00 77 1015.3
20260905153018 85 0 3.5 7.8 0.00 0.00 0.00 77 1015.2
20260905152018 84 23 2.6 7.8 0.00 0.00 0.00 78 1015.0
20260905151018 84 338 4.3 8.7 0.00 0.00 0.00 77 1015.1
20260905150018 83 338 2.6 7.0 0.00 0.00 0.00 79 1015.0
20260905145018 82 45 3.5 7.0 0.00 0.00 0.00 81 1014.7
20260905144018 81 0 3.5 7.0 0.00 0.00 0.00 82 1014.7
20260905143018 80 0 3.5 8.7 0.00 0.00 0.00 84 1014.6
20260905142018 79 338 2.6 4.3 0.00 0.00 0.00 86 1014.5
20260905141018 78 338 1.7 3.5 0.00 0.00 0.00 88 1014.5
20260905140018 77 338 2.6 4.3 0.00 0.00 0.00 88 1014.4
20260905135018 76 0 1.7 5.2 0.00 0.00 0.00 90 1014.3
20260905134018 75 0 0.9 1.7 0.00 0.00 0.00 91 1014.1
20260905133018 75 0 0.9 2.6 0.00 0.00 0.00 91 1014.0
20260905132018 74 0 0.9 2.6 0.00 0.00 0.00 92 1013.9
20260905131018 74 0 2.6 4.3 0.00 0.00 0.00 92 1013.7
20260905130018 74 23 1.7 2.6 0.00 0.00 0.00 93 1013.5
20260905125017 73 23 1.7 2.6 0.00 0.00 0.00 93 1013.6
20260905124018 73 23 1.7 3.5 0.00 0.00 0.00 93 1013.7
20260905123018 73 0.0 0.0 0.00 0.00 0.00 93 1013.7
20260905122017 73 0.0 0.0 0.00 0.00 0.00 93 1013.7
20260905121018 73 338 0.9 2.6 0.00 0.00 0.00 93 1013.7
20260905120018 73 338 0.9 2.6 0.00 0.00 0.00 92 1013.5
20260905115017 73 338 2.6 4.3 0.00 0.00 0.00 92 1013.3
20260905114017 73 23 1.7 3.5 0.00 0.00 0.00 92 1013.4
20260905113017 73 0.0 2.6 0.00 0.00 0.00 92 1013.4
20260905112018 73 0.0 0.0 0.00 0.00 0.00 92 1013.4
20260905111018 73 0.0 0.0 0.00 0.00 0.00 92 1013.2
20260905110017 73 0.0 0.9 0.00 0.00 0.00 92 1013.1
20260905105019 73 0.0 0.9 0.00 0.00 0.00 91 1012.9
20260905104018 73 0.0 1.7 0.00 0.00 0.00 91 1012.8
20260905103017 73 0.0 0.9 0.00 0.00 0.00 91 1012.7
20260905102019 73 0.0 0.0 0.00 0.00 0.00 91 1012.7
20260905101019 73 0.0 0.0 0.00 0.00 0.00 91 1012.8
20260905100019 73 0.0 1.7 0.00 0.00 0.00 91 1013.0
20260905095019 73 0.0 0.0 0.00 0.00 0.00 91 1013.0
20260905094019 74 0.0 0.0 0.00 0.00 0.00 91 1013.1
20260905093019 74 0.0 0.0 0.00 0.00 0.00 91 1013.2
20260905092019 74 0.0 0.0 0.00 0.00 0.00 91 1013.3